Regional Weather Roundup
Issued by NWS Northern Indiana

Home | Current Version | Previous Version | Graphics & Text | Print | Product List | Glossary On
Versions: 1 2 3 4 5 6 7 8 9 10 11 12 13 14 15 16 17 18 19 20 21 22 23 24 25 26 27 28 29 30 31 32 33 34 35 36 37 38 39 40 41 42 43 44 45 46 47 48 49 50
000
ASUS43 KIWX 270100
RWRIWX

KIWX WEATHER ROUNDUP
NATIONAL WEATHER SERVICE NORTHERN INDIANA
900 PM EDT THU MAR 26 2015

NOTE: "FAIR" INDICATES FEW OR NO CLOUDS BELOW 12,000 FEET WITH NO
SIGNIFICANT WEATHER AND/OR OBSTRUCTIONS TO VISIBILITY.

* THESE STATIONS ARE NOT UNDER NWS QUALITY CONTROL. THEY ALSO MAY NOT
  REPORT WEATHER SUCH AS PRECIPITATION OR FOG.

INZ001>027-270200-
NORTHERN INDIANA

CITY           SKY/WX    TMP DP  RH WIND       PRES   REMARKS
GARY*          MOCLDY    37  25  60 NE16      30.02R
SOUTH BEND     CLOUDY    34  24  67 N9        30.00R WCI  27
ELKHART*       CLOUDY    34  21  60 NW6       29.99R WCI  29
GOSHEN         CLOUDY    34  23  64 NW12      29.98R WCI  25
ANGOLA*        CLOUDY    36  21  55 NW13      29.94S
FORT WAYNE     PTCLDY    35  24  64 N8        29.97R WCI  29
PERU/GRISSOM   CLOUDY    39  26  60 N7        29.97R

$$
INZ028>050-270200-
CENTRAL INDIANA

CITY           SKY/WX    TMP DP  RH WIND       PRES   REMARKS
LAFAYETTE      MOCLDY    39  27  62 NW12      30.00R
KOKOMO*          N/A     37  27  65 N6        29.97R
MUNCIE*        MOCLDY    38  29  70 N9        29.95R
INDIANAPOLIS   PTCLDY    39  29  67 NW8       29.96S

$$
MIZ043>046-050>051-056>058-064>065-071>073-077>080-270200-
SOUTHWEST LOWER MICHIGAN

CITY           SKY/WX    TMP DP  RH WIND       PRES   REMARKS
BATTLE CREEK   CLOUDY    34  23  64 NW10      29.96R WCI  26
BENTON HARBOR  CLOUDY    32  27  81 VRB3      30.00S
COLDWATER*     CLOUDY    34  23  64 NW9G17    29.95R WCI  27
HILLSDALE*     CLOUDY    35  22  59 NW14G21   29.93R WCI  26
HOLLAND        CLOUDY    33  25  72 NW10      30.00R WCI  25
GRAND RAPIDS   FLURRIES  32  24  72 NW15      29.97R WCI  22
KALAMAZOO      CLOUDY    33  24  69 NW13      29.97R WCI  24
STURGIS*       CLOUDY    34  25  69 CALM      29.96R
THREE RIVERS*  CLOUDY    34  24  67 NW7       29.98R WCI  28

$$
OHZ001>008-015>018-024>025-270200-
NORTHWEST OHIO

CITY           SKY/WX    TMP DP  RH WIND       PRES   REMARKS
DEFIANCE       CLOUDY    37  23  56 NW12      29.97R
FINDLAY        CLOUDY    39  27  62 NW16      29.92R
TOLEDO EXPRESS CLOUDY    37  24  59 NW12      29.94R
TOLEDO METCALF CLOUDY    39  24  55 NW14      29.94R
LIMA           MOCLDY    39  28  64 NW18G28   29.93R

$$
AND FOR LAKE MICHIGAN COASTAL AND OPEN LAKE BUOY OBSERVATIONS

STATION/POSITION TEMP    WIND        PRES    VSBY  WAVE
                 AIR SEA DIR/SP/G                  HT/PER
                 (F)     (DEG/KT/KT) (MB)    (MI)  (FT/S)
CALUMET HARBOR    36     360/ 10/ 14 1015.1R
MICHIGAN CITY     34     350/ 11/ 14   N/A
BURNS HARBOR      35      30/ 11/ 13 1016.6S
SAINT JOSEPH      33     330/  9/ 11 1016.6S

$$
&&


USA.gov is the U.S. government's official web portal to all federal, state and local government web resources and services.